Location: Zagreb
(45.8000°N, 16.0000°E)
Time: 18:39:43
(UTC+01:00)

N. Korean satellite - Pass Details

Date: 06 December 2021
Orbit: 447 x 491 km, 97.3° (Epoch: 23 January)

Event Time Altitude Azimuth Distance (km) Brightness Sun altitude
Rises 06:26:34 0° 353° (N) 2,465 9.9 -9.4°
Reaches altitude 10° 06:29:30 10° 324° (NW) 1,583 8.6 -9.0°
Maximum altitude 06:31:05 13° 296° (WNW) 1,409 8.2 -8.7°
Drops below altitude 10° 06:32:41 10° 268° (W) 1,576 8.6 -8.5°
Sets 06:35:35 0° 239° (WSW) 2,443 9.8 -8.0°
